TITAN 34D TRANSTAGE DEB, 22669

Orbit data source: Space-Track

TITAN 34D TRANSTAGE DEB, 22669 is space debris in HEO originally from a launch on Fri, 02 Sep 1988 UTC launched from the Air Force Eastern Test Range (AFETR). Debris objects in space refer to the collection of defunct objects orbiting the Earth. Examples of debris include non-operational satellites, rocket bodies, and fragments generated from explosions, collisions, or faulty payload assembly.

Loading next visibility...
Identifier
22669, 1988-077E
Orbit
HEO
Country
Flag of USUS
Related business
Manufacturer
Unknown
Mission
Spacecraft
Bus & Motor
Unknown
Mass
Unknown
Launch date (UTC)
1988-09-02 (38 years ago)
Launch vehicle
Unknown
Launch site
Air Force Eastern Test Range (AFETR)
Object type
Payload
Rocket body
Debris
Shape & HBR
Unknown shape, 1.8 m
Radar Cross Section
Large (>1 m²)

Expand to show TLE details & history
Last TLE update: 2 days ago

TLE from 2 days ago
0 TITAN 34D TRANSTAGE DEB
1 22669U 88077E   26171.41116826  .00000043  00000-0  92584-3 0  9999
2 22669  26.5424 206.4194 7321831   2.7627 359.8338  2.11773230 54188
Epoch: 2026-06-20T09:52Z
TLE epoch observation values (Epoch: 2026-06-20T09:52:04.937Z)
Latitude
0.00016°
Longitude
149.78216°
Altitude
492.47 km
Speed
10.023 km/s
True Right ascension
13h 45m 42s
True Declination
0° 00' 01"
Sunlit
Object was in full shadow at epoch
Visualization orbit readout
Latitude
Unknown
Longitude
Unknown
Altitude
Unknown
Speed
Unknown
Apparent Right ascension
Unknown
Apparent Declination
Unknown
Sunlit
N/A
Visualization observer readout
Local Sidereal Time
00:39:51
Azimuth
Unknown
Elevation
Unknown
Doppler factor
Unknown
Orbital elements
Apogee altitude
37,997.693 km
Perigee altitude
482.914 km
Semi-major axis
25,618.441 km
Eccentricity
0.73218
Inclination
26.5424°
RAAN
206.4194°
Arg. of periapsis
2.7627°
True anomaly
358.42194°
Mean anomaly
359.8338°
Eccentric anomaly
359.37946°
Mean motion
0.52931 °/min
Orbital period
680.12 mins
BSTAR
0.00092584
Loading maneuver chart data...
Computing Atmospheric mass density...

Documentation

Showing up to 5 results
|